Garden City, KS

1:33 PM CDT on August 18, 2017 (GMT -0500)
Garden City Regional

Weather History for KGCK - November, 2012

Change the Weather History Date:

Friday, November 2, 2012

  Actual Average Record
Temperature  
Mean Temperature 56 °F 48 °F  
Max Temperature 74 °F 63 °F 84 °F (1964)
Min Temperature 38 °F 34 °F -3 °F (1991)
Degree Days  
Heating Degree Days 9 17  
Month to date heating degree days 16 33  
Since 1 July heating degree days 447 423  
Cooling Degree Days 0 0  
Month to date cooling degree days 0 0  
Year to date cooling degree days 1643 1298  
Growing Degree Days 6 (Base 50)    
Moisture  
Dew Point 32 °F    
Average Humidity 45    
Maximum Humidity 70    
Minimum Humidity 20    
Precipitation  
Precipitation 0.00 in 0.02 in 0.66 in (1981)
Month to date precipitation 0.00 0.04  
Year to date precipitation 12.67 18.44  
Sea Level Pressure  
Sea Level Pressure 29.87 in    
Wind  
Wind Speed 15 mph (North)    
Max Wind Speed 37 mph    
Max Gust Speed 43 mph    
Visibility 10 miles    
Events      
T = Trace of Precipitation, MM = Missing Value Source: NWS Daily Summary

Daily Weather History Graph

Daily Weather History Graph

Search for Another Location

Airport or City:

Trip Planner

Search our weather history database for the weather conditions in past years. The results will help you decide how hot, cold, wet, or windy it might be!

Date:

Astronomy

Nov. 02, 2012 Rise Set
Actual Time 8:10 AM CDT 6:42 PM CDT
Civil Twilight 7:42 AM CDT 7:09 PM CDT
Nautical Twilight 7:11 AM CDT 7:40 PM CDT
Astronomical Twilight 6:40 AM CDT 8:11 PM CDT
Moon 9:33 PM CDT (11/2) 11:29 AM CDT (11/2)
Length of Visible Light 11h 26m
Length of Day
10h 32m
Waning Gibbous, 87% of the Moon is Illuminated
Nov 2
Waning Gibbous
Nov 6
Last Quarter
Nov 13
New
Nov 20
First Quarter
Nov 28
Full

Hourly Weather History & Observations

Time (CDT) Temp. Windchill Dew Point Humidity Pressure Visibility Wind Dir Wind Speed Gust Speed Precip Events Conditions
12:54 AM 54.0 °F - 34.0 °F 47% 29.80 in 10.0 mi SE 10.4 mph - N/A   Clear
1:54 AM 52.0 °F - 34.0 °F 50% 29.78 in 10.0 mi SSE 10.4 mph - N/A   Clear
2:54 AM 50.0 °F - 34.0 °F 54% 29.75 in 10.0 mi SSE 9.2 mph - N/A   Clear
3:54 AM 46.9 °F - 34.0 °F 61% 29.75 in 10.0 mi South 6.9 mph - N/A   Clear
4:54 AM 45.0 °F 40.6 °F 32.0 °F 60% 29.74 in 10.0 mi South 8.1 mph - N/A   Clear
5:54 AM 44.1 °F 39.5 °F 28.9 °F 55% 29.74 in 10.0 mi WSW 8.1 mph - N/A   Clear
6:54 AM 42.1 °F 36.1 °F 27.0 °F 55% 29.78 in 10.0 mi West 10.4 mph - N/A   Clear
7:54 AM 39.0 °F 31.8 °F 28.0 °F 65% 29.81 in 10.0 mi West 11.5 mph - N/A   Clear
8:54 AM 45.0 °F 38.5 °F 28.9 °F 53% 29.82 in 10.0 mi NW 13.8 mph - N/A   Clear
9:54 AM 53.1 °F - 32.0 °F 45% 29.84 in 10.0 mi NW 18.4 mph - N/A   Clear
10:54 AM 57.0 °F - 34.0 °F 42% 29.83 in 10.0 mi NNW 16.1 mph - N/A   Clear
11:54 AM 64.0 °F - 34.0 °F 33% 29.84 in 10.0 mi North 23.0 mph 32.2 mph N/A   Clear
12:54 PM 70.0 °F - 30.0 °F 23% 29.84 in 10.0 mi North 31.1 mph 39.1 mph N/A   Clear
1:54 PM 72.0 °F - 30.0 °F 21% 29.83 in 10.0 mi NNE 23.0 mph 34.5 mph N/A   Clear
2:54 PM 73.9 °F - 30.0 °F 20% 29.84 in 10.0 mi North 23.0 mph 32.2 mph N/A   Clear
3:54 PM 71.1 °F - 30.9 °F 23% 29.86 in 10.0 mi North 21.9 mph - N/A   Clear
4:54 PM 69.1 °F - 30.0 °F 23% 29.89 in 10.0 mi North 20.7 mph 27.6 mph N/A   Clear
5:54 PM 64.9 °F - 32.0 °F 29% 29.93 in 10.0 mi North 20.7 mph - N/A   Clear
6:54 PM 59.0 °F - 34.0 °F 39% 29.99 in 10.0 mi NNE 16.1 mph - N/A   Clear
7:54 PM 51.1 °F - 34.0 °F 52% 30.04 in 10.0 mi North 8.1 mph - N/A   Clear
8:54 PM 48.9 °F - 35.1 °F 59% 30.06 in 10.0 mi North 9.2 mph - N/A   Clear
9:54 PM 48.0 °F - 35.1 °F 61% 30.06 in 10.0 mi NNE 10.4 mph - N/A   Clear
10:54 PM 46.0 °F 41.0 °F 34.0 °F 63% 30.08 in 10.0 mi NNE 10.4 mph - N/A   Clear
11:54 PM 43.0 °F 37.7 °F 34.0 °F 71% 30.09 in 10.0 mi North 9.2 mph - N/A   Clear